This demonstration page uses our WeatherBlox Daily Observations layout. Learn more.

Left ArrowRight Arrow

Hourly Observations for April 20, 2019

Temp ( °F °C ) Dew Point ( °F °C ) Humidity (%) Winds ( mph kmh ) Pressure ( in mb ) Visibility ( mi km ) Precip ( " mm )
12:52 am 00:52 Clear 49 9.4 34 1.1 56 56 SSE 6 9 29.94 1014 10 16 0.00 0.00
1:52 am 01:52 Clear 48 8.9 35 1.7 61 61 SSE 6 9 29.94 1014 10 16 0.00 0.00
3:52 am 03:52 Clear 46 7.8 36 2.2 68 68 SE 9 15 29.93 1014 10 16 0.00 0.00
4:52 am 04:52 Clear 46 7.8 37 2.8 71 71 SE 9 15 29.93 1013 10 16 0.00 0.00
5:52 am 05:52 Clear 44 6.7 36 2.2 73 73 SSE 8 13 29.91 1013 10 16 0.00 0.00
6:52 am 06:52 Mostly Sunny 45 7.2 36 2.2 71 71 SSE 10 17 29.91 1013 10 16 0.00 0.00
7:52 am 07:52 Sunny 50 10 36 2.2 59 59 SSE 10 17 29.91 1013 10 16 0.00 0.00
8:52 am 08:52 Sunny 56 13.3 34 1.1 44 44 SSE 12 19 29.89 1012 10 16 0.00 0.00
9:52 am 09:52 Sunny 62 16.7 34 1.1 35 35 S 12 19 29.87 1012 10 16 0.00 0.00
10:52 am 10:52 Sunny 67 19.4 34 1.1 30 30 S 14 22 29.85 1011 10 16 0.00 0.00
11:52 am 11:52 Sunny 72 22.2 36 2.2 27 27 S 15 24 29.83 1010 10 16 0.00 0.00
12:52 pm 12:52 Sunny 76 24.4 36 2.2 23 23 S 16 26 29.80 1009 10 16 0.00 0.00
1:52 pm 13:52 Sunny 79 26.1 36 2.2 21 21 S 15 24 29.77 1008 10 16 0.00 0.00
2:52 pm 14:52 Sunny 82 27.8 38 3.3 21 21 S 13 20 29.75 1007 10 16 0.00 0.00
3:52 pm 15:52 Sunny 83 28.3 38 3.3 20 20 S 15 24 29.72 1006 10 16 0.00 0.00
4:52 pm 16:52 Sunny 83 28.3 42 5.6 24 24 SSE 15 24 29.69 1005 10 16 0.00 0.00
5:52 pm 17:52 Mostly Sunny 83 28.3 41 5 23 23 SSE 17 28 29.67 1005 10 16 0.00 0.00
6:52 pm 18:52 Mostly Sunny 81 27.2 44 6.7 27 27 SSE 14 22 29.66 1004 10 16 0.00 0.00
7:52 pm 19:52 Mostly Sunny 78 25.6 43 6.1 29 29 SSE 15 24 29.66 1004 10 16 0.00 0.00
8:52 pm 20:52 Partly Cloudy 75 23.9 44 6.7 33 33 SSE 14 22 29.67 1005 10 16 0.00 0.00
9:52 pm 21:52 Partly Cloudy 71 21.7 43 6.1 36 36 SSE 15 24 29.68 1005 10 16 0.00 0.00
10:52 pm 22:52 Mostly Cloudy 67 19.4 44 6.7 44 44 SSE 12 19 29.69 1005 10 16 0.00 0.00
11:52 pm 23:52 Partly Cloudy 69 20.6 45 7.2 42 42 SSE 16 26 29.69 1005 10 16 0.00 0.00

Powered by AerisWeather